Weather History for Brooksville, FL

Change the Weather History Date:

Tuesday, December 4, 2012

  Actual Average Record
Temperature  
Mean Temperature 64 °F -  
Max Temperature 80 °F 71 °F 82 °F (1998)
Min Temperature 48 °F 47 °F 30 °F (2010)
Degree Days  
Heating Degree Days 1    
Growing Degree Days 14 (Base 50)    
Moisture  
Dew Point 53 °F    
Average Humidity 84    
Maximum Humidity 100    
Minimum Humidity 36    
Precipitation  
Precipitation 0.00 in - - ()
Sea Level Pressure  
Sea Level Pressure 30.25 in    
Wind  
Wind Speed 2 mph (ENE)    
Max Wind Speed 12 mph    
Max Gust Speed -    
Visibility 5 miles    
Events Fog    
Averages and records for this station are not official NWS values.
T = Trace of Precipitation, MM = Missing Value Source: NWS Daily Summary

Daily Weather History Graph

Daily Weather History Graph

Search for Another Location

Airport:

Trip Planner

Search our weather history database for the weather conditions in past years. The results will help you decide how hot, cold, wet, or windy it might be!

Date:

Astronomy

Dec. 04, 2012 Rise Set
Actual Time 7:07 AM EST 5:32 PM EST
Civil Twilight 6:41 AM EST 5:58 PM EST
Nautical Twilight 6:12 AM EST 6:27 PM EST
Astronomical Twilight 5:43 AM EST 6:56 PM EST
Moon 11:00 PM EST (12/4) 11:17 AM EST (12/4)
Length of Visible Light 11h 16m
Length of Day
10h 25m
Waning Gibbous, 69% of the Moon is Illuminated
Dec 4
Waning Gibbous
Dec 6
Last Quarter
Dec 13
New
Dec 20
First Quarter
Dec 28
Full

Hourly Weather History & Observations

Time (EST) Temp. Dew Point Humidity Pressure Visibility Wind Dir Wind Speed Gust Speed Precip Events Conditions
12:15 AM 53.6 °F 51.8 °F 94% 30.27 in 1.8 mi Calm Calm - N/A   Clear
12:22 AM 53.6 °F 53.6 °F 100% 30.26 in 1.5 mi Calm Calm - N/A   Clear
12:49 AM 53.6 °F 53.6 °F 100% 30.26 in 0.5 mi Calm Calm - N/A Fog Fog
12:53 AM 54.0 °F 53.1 °F 97% 30.26 in 0.5 mi Calm Calm - N/A Fog Fog
1:08 AM 53.6 °F 53.6 °F 100% 30.26 in 1.8 mi Calm Calm - N/A   Clear
1:11 AM 55.4 °F 55.4 °F 100% 30.26 in 3.0 mi Calm Calm - N/A   Clear
1:53 AM 51.1 °F 50.0 °F 96% 30.26 in 5.0 mi Calm Calm - N/A   Clear
1:58 AM 50.0 °F 50.0 °F 100% 30.26 in 1.8 mi Calm Calm - N/A   Clear
2:09 AM 53.6 °F 53.6 °F 100% 30.26 in 3.0 mi Calm Calm - N/A   Clear
2:33 AM 51.8 °F 51.8 °F 100% 30.25 in 1.8 mi Calm Calm - N/A   Clear
2:37 AM 51.8 °F 51.8 °F 100% 30.25 in 0.8 mi Calm Calm - N/A   Clear
2:53 AM 51.1 °F 50.0 °F 96% 30.25 in 0.2 mi Calm Calm - N/A Fog Fog
3:06 AM 51.8 °F 50.0 °F 94% 30.25 in 0.5 mi Calm Calm - N/A Fog Fog
3:28 AM 48.2 °F 48.2 °F 100% 30.25 in 0.5 mi Calm Calm - N/A Fog Fog
3:53 AM 51.1 °F 51.1 °F 100% 30.25 in 0.5 mi Calm Calm - N/A Fog Fog
4:53 AM 50.0 °F 50.0 °F 100% 30.25 in 0.2 mi Calm Calm - N/A Fog Fog
5:20 AM 53.6 °F 51.8 °F 94% 30.25 in 2.0 mi Calm Calm - N/A   Clear
5:27 AM 53.6 °F 51.8 °F 94% 30.25 in 10.0 mi NE 3.5 mph - N/A   Clear
5:36 AM 50.0 °F 50.0 °F 100% 30.25 in 1.8 mi Calm Calm - N/A   Clear
5:40 AM 48.2 °F 48.2 °F 100% 30.25 in 0.8 mi Calm Calm - N/A   Clear
5:53 AM 51.1 °F 50.0 °F 96% 30.25 in 0.5 mi Calm Calm - N/A Fog Fog
6:15 AM 53.6 °F 51.8 °F 94% 30.25 in 1.8 mi NNE 3.5 mph - N/A   Clear
6:18 AM 53.6 °F 51.8 °F 94% 30.25 in 3.0 mi NNE 3.5 mph - N/A   Clear
6:45 AM 51.8 °F 51.8 °F 100% 30.27 in 1.8 mi NE 3.5 mph - N/A   Clear
6:53 AM 53.1 °F 53.1 °F 100% 30.27 in 1.2 mi Calm Calm - N/A   Clear
7:07 AM 55.4 °F 55.4 °F 100% 30.28 in 3.0 mi NE 3.5 mph - N/A   Clear
7:53 AM 57.9 °F 57.9 °F 100% 30.29 in 10.0 mi ENE 5.8 mph - N/A   Clear
8:53 AM 64.0 °F 60.1 °F 87% 30.31 in 10.0 mi NE 4.6 mph - N/A   Clear
9:53 AM 69.1 °F 59.0 °F 70% 30.32 in 10.0 mi East 5.8 mph - N/A   Clear
10:53 AM 73.9 °F 55.9 °F 53% 30.31 in 10.0 mi East 8.1 mph - N/A   Clear
11:53 AM 77.0 °F 53.1 °F 43% 30.27 in 10.0 mi ENE 10.4 mph - N/A   Clear
12:53 PM 79.0 °F 52.0 °F 39% 30.25 in 10.0 mi ESE 11.5 mph - N/A   Clear
1:53 PM 78.1 °F 51.1 °F 39% 30.22 in 10.0 mi ESE 6.9 mph - N/A   Clear
2:53 PM 80.1 °F 51.1 °F 36% 30.21 in 10.0 mi SE 8.1 mph - N/A   Mostly Cloudy
3:53 PM 78.1 °F 52.0 °F 40% 30.21 in 10.0 mi East 6.9 mph - N/A   Clear
4:53 PM 75.9 °F 54.0 °F 46% 30.21 in 10.0 mi East 6.9 mph - N/A   Clear
5:53 PM 69.1 °F 55.0 °F 61% 30.22 in 10.0 mi ENE 3.5 mph - N/A   Clear
6:53 PM 66.9 °F 55.0 °F 66% 30.22 in 10.0 mi ENE 5.8 mph - N/A   Mostly Cloudy
7:53 PM 66.0 °F 53.1 °F 63% 30.23 in 10.0 mi East 5.8 mph - N/A   Clear
8:53 PM 66.0 °F 54.0 °F 65% 30.23 in 10.0 mi East 8.1 mph - N/A   Mostly Cloudy
9:53 PM 64.0 °F 55.0 °F 73% 30.23 in 10.0 mi East 4.6 mph - N/A   Clear
10:53 PM 61.0 °F 55.0 °F 81% 30.22 in 10.0 mi Calm Calm - N/A   Clear
11:53 PM 55.0 °F 52.0 °F 89% 30.22 in 10.0 mi Calm Calm - N/A   Clear